This is the latest recevied weather packets stored in our database for station/object W4SKW. If no packets are shown the sender has not sent any weather packets the latest 10 day(s).
| Time | Temp. | Humidity | Pressure | Rain* | Wind** | Luminosity | Snow |
|---|---|---|---|---|---|---|---|
| 1778017612 | 22.78° C | 58% | 1014 hPa | 0 mm | - | 107 W/m² | - |
| 1778017309 | 22.78° C | 62% | 1014 hPa | 0 mm | - | 116 W/m² | - |
| 1778017006 | 22.78° C | 58% | 1014.2 hPa | 0 mm | - | 113 W/m² | - |
| 1778016703 | 22.78° C | 53% | 1014.1 hPa | 0 mm | - | 106 W/m² | - |
| 1778016399 | 22.78° C | 63% | 1013.9 hPa | 0 mm | - | 128 W/m² | - |
| 1778016097 | 23.89° C | 45% | 1014 hPa | 0 mm | - | 118 W/m² | - |
| 1778015793 | 23.33° C | 61% | 1013.9 hPa | 0 mm | - | 101 W/m² | - |
| 1778015491 | 23.89° C | 57% | 1013.9 hPa | 0 mm | - | 132 W/m² | - |
| 1778015187 | 24.44° C | 48% | 1013.6 hPa | 0 mm | - | 183 W/m² | - |
| 1778014884 | 24.44° C | 46% | 1013.7 hPa | 0 mm | - | 213 W/m² | - |
| 1778014582 | 25° C | 44% | 1013.7 hPa | 0 mm | - | 154 W/m² | - |
| 1778014280 | 25° C | 57% | 1013.9 hPa | 0 mm | - | 382 W/m² | - |
| 1778013976 | 25.56° C | 42% | 1014 hPa | 0 mm | - | 324 W/m² | - |
| 1778013674 | 25.56° C | 42% | 1014.1 hPa | 0 mm | - | 267 W/m² | - |
| 1778013370 | 25.56° C | 42% | 1014.1 hPa | 0 mm | - | 312 W/m² | - |
| 1778013068 | 26.11° C | 42% | 1014.2 hPa | 0 mm | - | 355 W/m² | - |
| 1778012763 | 26.67° C | 42% | 1014.1 hPa | 0 mm | - | 388 W/m² | - |
| 1778012459 | 26.67° C | 39% | 1014.4 hPa | 0 mm | - | 592 W/m² | - |
| 1778012156 | 26.67° C | 39% | 1014.4 hPa | 0 mm | - | 592 W/m² | - |
| 1778011854 | 26.67° C | 41% | 1014.3 hPa | 0 mm | - | 570 W/m² | - |
| 1778011552 | 26.67° C | 40% | 1014.4 hPa | 0 mm | - | 641 W/m² | - |
| 1778011248 | 26.67° C | 41% | 1014.6 hPa | 0 mm | - | 655 W/m² | - |
| 1778010944 | 26.67° C | 44% | 1014.5 hPa | 0 mm | - | 664 W/m² | - |
| 1778010642 | 26.67° C | 41% | 1014.6 hPa | 0 mm | - | 647 W/m² | - |
| 1778010339 | 26.67° C | 58% | 1014.6 hPa | 0 mm | - | 678 W/m² | - |
* Rain latest hour (hover to see other rain measurements)
** Current wind speed in m/s (hover to see current wind gust speed)